www.pogodaiklimat.ru

Погода и климат >> Архив погоды >> Россия >> Чукотка >> Бухта Амбарчик


АРХИВ ПОГОДЫ в Бухте Амбарчик

Время (UTC), дата Ветер
(напр.,м/с)
 
Видим.   Явления Облачность Т
(С)
Тd
(С)
f
(%)
Тe
(С)
Тes
(С)
Комфортность P
(гПа)
Po
(гПа)
Тmin
(С)
Tmax
(С)
R
(мм)
R24
(мм)
S
(см)
09 10.07 ЮВ 2
{7}
20 км 6/1 600 м
[Sc Ac trans Ci fib]
+21.4 +11.7 54 +23 +24 комфорт 1011.3 1008.6 +24.7
15 10.07 Ю 5
{6}
20 км 4/0
[Ci fib]
+16.3 +11.1 71 +15 +15 1010.4 1007.7
21 10.07 ЮВ 5
{7}
20 км 4/0
[Ac trans Ci fib]
+24.7 +11.6 44 +26 +29 жарко 1010.2 1007.5 +14.9
03 11.07 В 6
{8}
20 км 6/4 300 м
[Cu med, cong Ci fib]
+26.7 +9.8 35 +27 +29 жарко 1008.2 1005.6
09 11.07 СЗ 1
{7}
20 км 8/6 300 м
[Cu med, cong Ac trans Ci fib]
+24.6 +13.5 50 +27 +27 жарко 1007.2 1004.5 +28.2
15 11.07 С 1
{7}
20 км 8/3 300 м
[Cu med, cong Ac trans Ci fib]
+14.1 +11.2 83 +14 +14 1006.3 1003.5
21 11.07 С 1
{6}
20 км 8/0
[Ac trans Ci fib]
+22.0 +16.5 71 +26 +30 душно 1006.4 1003.7 +12.7
03 12.07 СВ 2
{5}
20 км 4/1 300 м
[Cu med, cong Ac trans Ci fib]
+22.7 +13.7 57 +26 +33 жарко 1006.1 1003.4
09 12.07 СВ 4
{9}
20 км 4/1 300 м
[Cu med, cong Ac trans Ci fib]
+13.3 +10.5 83 +12 +12 1007.1 1004.3 +23.8
15 12.07 В 2
{7}
20 км 4/0
[Ci fib]
+7.5 +6.3 92 +5 +5 1008.2 1005.4
21 12.07 СВ 3
{5}
4000 м дымка 10/3 100 м
[St Ac und]
+7.8 +7.3 97 +5 +6 1008.5 1005.7 +7.0
03 13.07 В 1
{9}
4000 м дымка 9/3 100 м
[St Ac trans Ci fib]
+10.3 +9.3 94 +10 +14 1007.0 1004.2
09 13.07 ЮЗ 2
{4}
20 км 8/0
[Ac trans Ci fib]
+20.1 +14.3 69 +23 +24 комфорт 1005.9 1003.2 +20.3
15 13.07 СВ 5
{9}
20 км 10/3 200 м
[St Ac und]
+6.5 +5.1 91 +2 +2 1008.7 1005.8
21 13.07 В 2
{7}
20 км 9/3 300 м
[St Ac trans Ci fib]
+7.2 +5.2 87 +5 +7 1009.8 1007.0 +5.8
03 14.07 СВ 2
{5}
20 км 10/4 300 м
[Sc Ac und]
+9.6 +5.0 73 +8 +10 1009.3 1006.5
09 14.07 В 4
{9}
20 км 10/6 200 м
[St Ac und]
+6.2 +4.7 90 +2 +2 1006.8 1003.9 +9.7
15 14.07 В 9
{13}
4000 м ливневой дождь 10/10 200 м
[Cb cap]
+5.7 +4.3 91 -0 -0 1003.7 1000.8
21 14.07 В 9-11
{14}
10 км {ливн. осадки} 10/8 200 м
[St Ac und]
+5.5 +4.6 94 -1 -1 1003.9 1001.0 +4.4 4
03 15.07 СВ 7
{11}
10 км 10/8 200 м
[St Ac und]
+5.6 +4.2 91 0 0 1006.7 1003.8
09 15.07 В 3
{8}
4000 м дымка 10/8 100 м
[St Ac und]
+3.5 +2.9 96 -1 -1 1007.0 1004.1 +5.8
15 15.07 ЮЗ 4
{5}
20 км 10/8 300 м
[St Ac und]
+6.7 +4.3 85 +3 +3 1006.1 1003.3
21 15.07 З 7
{10}
20 км 9/6 300 м
[St Ac trans]
+9.5 +3.7 67 +6 +6 1005.1 1002.3 +3.3
03 16.07 З 11-14
{14}
20 км в посл. час ливневой дождь 9/9 200 м
[Cb cap]
+11.9 +4.7 61 +8 +8 1002.8 1000.0
09 16.07 З 10-14
{18}
4000 м ливневой дождь 10/10 200 м
[Cb cap]
+9.3 +7.4 88 +4 +4 1002.1 999.3 +12.5 1
15 16.07 СЗ 10-13
{14}
10 км слаб. ливневой дождь 10/10 200 м
[Cb cap]
+6.1 +3.1 81 0 0 1004.5 1001.6
21 16.07 СЗ 7-10
{14}
20 км {ливн. осадки} 10/10 200 м
[St]
+5.3 +1.2 75 0 0 1005.8 1002.9 +4.4 0.9
03 17.07 СЗ 7
{13}
20 км {ливн. осадки} 9/9 200 м
[St]
+5.5 +2.3 80 0 0 1005.5 1002.7

 

Местоположение метеостанции Бухта Амбарчик (Чукотка, Россия): широта 69.62 долгота 162.30 высота над уровнем моря 23 м.

В архиве по умолчанию представлена погода в Бухте Амбарчик за последнюю неделю. Архивные данные за месяц целиком и за предыдущие месяцы, начиная с января 2011 года, Вы можете получить, выбрав интересующий диапазон дат из раскрывающегося списка и нажав кнопку "Ввод!".


*Определитесь, кто Вы:
робот инопланетянин человек

Внимание! Время в таблицах - всемирное. Для получения местного времени необходимо прибавить поправку, которая равна 12 ч.

Смотрите также архив погоды в соседних городах и на ближайших метеорологических станциях:

Погода в Черском (Якутия, Россия) (107 км)
Погода в Анюйске (Чукотка, Россия) (145 км)
Погода в Раучуе (Чукотка, Россия) (164 км)
Погода в Константиновской (Чукотка, Россия) (170 км)
Погода в Колымской (Якутия, Россия) (177 км)
Погода в Островном (Чукотка, Россия) (182 км)
Погода на Айон Острове (Чукотка, Россия) (218 км)
Погода в Билибино (Чукотка, Россия) (240 км)
Погода в Певеке (Чукотка, Россия) (305 км)
Погода в Андрюшкино (Якутия, Россия) (309 км)

Пояснения к столбцам:

Ветер - указаны скорость ветра в м/с - средняя за 10 мин, порывы в срок и между сроками (в фигурных скобках) и направление, откуда дует ветер: С - северный, СВ - северо-восточный, В - восточный, ЮВ - юго-восточный, Ю - южный, ЮЗ - юго-западный, З - западный, СЗ - северо-западный.
Видимость - горизонтальная дальность видимости в метрах или километрах. При видимости от 1 до 10 км при отсутствии осадков обычно наблюдается дымка, при ухудшении видимости до 1 км и менее - туман. В сухую погоду видимость может ухудшаться дымом, пылью или мглою.
Явления - указаны атмосферные явления, наблюдавшиеся в срок или в последний час перед сроком; фигурными скобками обозначены явления, наблюдавшиеся между сроками (за 1-3 часа до срока); квадратными скобками обозначены град или гололедные отложения с указанием их диаметра в мм.
Облачность - указаны через наклонную черту общая и нижняя облачность в баллах и высота нижней границы облаков в метрах; квадратными скобками обозначены формы облаков: Ci - перистые, Cs - перисто-слоистые, Cc - перисто-кучевые, Ac - высококучевые, As - высокослоистые, Sc - слоисто-кучевые, Ns - слоисто-дождевые, Cu - кучевые, Cb - кучево-дождевые. Подробнее классификацию облаков см. в Атласе облаков (PDF).
T - Температура воздуха - температура, измеренная на высоте 2 м над землей.
Td - Температура точки росы - температура, при понижении до которой содержащийся в воздухе водяной пар достигнет насыщения.
f - Относительная влажность воздуха - влажноcть воздуха, измеренная на высоте 2 м над землей.
Te - Эффективная температура - температура, которую ощущает одетый по сезону человек в тени. Характеристика душности погоды. При расчете учитывается влияние влажности воздуха и скорости ветра на теплоощущения человека.
Tes - Эффективная температура на солнце - температура, которую ощущает человек, с поправкой на солнечный нагрев. Характеристика знойности погоды. Зависит от высоты солнца над горизонтом, облачности и скорости ветра. Ночью, в пасмурную погоду, а также при ветре 12 м/с и более поправка равна нулю.
P - Атмосферное давление - приведенное к уровню моря атмосферное давление.
Po - Атмосферное давление - измеренное на уровне метеостанции атмосферное давление.
Tmin - Минимальная температура - минимум температуры воздуха на высоте 2 м над землей.
Tmax - Максимальная температура - максимум температуры воздуха на высоте 2 м над землей.
R - Количество осадков - Количество выпавших осадков за период времени, мм. При наведении курсора мыши на число - период времени, за который выпало указанное количество осадков.
R24 - Количество осадков - Количество выпавших осадков за 24 часа, мм.
S - Снежный покров - Высота снежного покрова, см. При наведении курсора мыши на число - состояние снежного покрова и степень покрытия местности в баллах.